TimeCST,TemperatureF,Dew PointF,Humidity,Sea Level PressureIn,VisibilityMPH,Wind Direction,Wind SpeedMPH,Gust SpeedMPH,PrecipitationIn,Events,Conditions,WindDirDegrees,DateUTC
12:27 AM,15.8,12.2,86,29.90,0.5,West,4.6,-,N/A,,Mist,270,2013-02-23 06:27:00
12:53 AM,15.1,12.0,88,29.96,0.5,West,3.5,-,N/A,,Overcast,280,2013-02-23 06:53:00
1:53 AM,16.0,12.9,88,29.95,0.5,WNW,3.5,-,N/A,Fog,Light Freezing Fog,300,2013-02-23 07:53:00
2:24 AM,15.8,12.2,86,29.89,0.2,Calm,Calm,-,N/A,Fog,Light Freezing Fog,0,2013-02-23 08:24:00
2:53 AM,17.1,12.9,84,29.94,0.2,Calm,Calm,-,N/A,Fog,Light Freezing Fog,0,2013-02-23 08:53:00
3:53 AM,16.0,12.9,88,29.93,0.2,Calm,Calm,-,N/A,Fog,Light Freezing Fog,0,2013-02-23 09:53:00
4:53 AM,16.0,12.9,88,29.92,0.2,Calm,Calm,-,N/A,Fog,Light Freezing Fog,0,2013-02-23 10:53:00
5:15 AM,15.8,12.2,86,29.87,0.5,Calm,Calm,-,N/A,Fog,Light Freezing Fog,0,2013-02-23 11:15:00
5:23 AM,15.8,12.2,86,29.87,0.2,Calm,Calm,-,N/A,Fog,Light Freezing Fog,0,2013-02-23 11:23:00
5:33 AM,15.8,12.2,86,29.87,0.5,Calm,Calm,-,N/A,Fog,Light Freezing Fog,0,2013-02-23 11:33:00
5:44 AM,15.8,12.2,86,29.87,1.0,Calm,Calm,-,N/A,,Overcast,0,2013-02-23 11:44:00
5:53 AM,16.0,12.0,84,29.93,0.8,WSW,3.5,-,N/A,,Mist,240,2013-02-23 11:53:00
6:13 AM,15.8,12.2,86,29.87,0.2,SW,4.6,-,N/A,Fog,Light Freezing Fog,220,2013-02-23 12:13:00
6:29 AM,15.8,12.2,86,29.87,0.5,SW,3.5,-,N/A,Fog,Light Freezing Fog,230,2013-02-23 12:29:00
6:41 AM,15.8,10.4,79,29.87,1.0,South,4.6,-,N/A,,Mist,190,2013-02-23 12:41:00
6:47 AM,15.8,10.4,79,29.87,0.2,South,3.5,-,N/A,Fog,Light Freezing Fog,190,2013-02-23 12:47:00
6:48 AM,15.1,10.9,84,29.93,0.2,SSW,3.5,-,N/A,Fog,Light Freezing Fog,200,2013-02-23 12:48:00
7:53 AM,15.1,10.9,84,29.92,0.2,Calm,Calm,-,N/A,Fog,Light Freezing Fog,0,2013-02-23 13:53:00
8:53 AM,12.9,9.0,84,29.94,0.2,WSW,4.6,-,N/A,Fog,Light Freezing Fog,250,2013-02-23 14:53:00
9:02 AM,12.2,8.6,85,29.88,0.5,WSW,4.6,-,N/A,Fog,Light Freezing Fog,250,2013-02-23 15:02:00
9:13 AM,12.2,8.6,85,29.88,1.2,West,5.8,-,N/A,,Overcast,260,2013-02-23 15:13:00
9:18 AM,12.2,8.6,85,29.88,3.0,West,5.8,-,N/A,,Overcast,260,2013-02-23 15:18:00
9:34 AM,12.2,8.6,85,29.88,2.5,West,4.6,-,N/A,,Overcast,260,2013-02-23 15:34:00
9:42 AM,12.2,8.6,85,29.88,4.0,West,4.6,-,N/A,,Overcast,270,2013-02-23 15:42:00
9:53 AM,12.0,8.1,84,29.94,5.0,Calm,Calm,-,N/A,,Overcast,0,2013-02-23 15:53:00
10:53 AM,17.1,15.1,92,29.94,7.0,Calm,Calm,-,N/A,,Overcast,0,2013-02-23 16:53:00
11:43 AM,19.4,14.0,80,29.88,10.0,Calm,Calm,-,N/A,,Scattered Clouds,0,2013-02-23 17:43:00
11:53 AM,19.9,14.0,78,29.94,10.0,ESE,3.5,-,N/A,,Partly Cloudy,110,2013-02-23 17:53:00
12:53 PM,19.9,14.0,78,29.93,10.0,ESE,6.9,-,N/A,,Partly Cloudy,120,2013-02-23 18:53:00
1:53 PM,19.9,14.0,78,29.92,10.0,South,5.8,-,N/A,,Clear,170,2013-02-23 19:53:00
2:53 PM,19.9,14.0,78,29.91,10.0,SSW,5.8,-,N/A,,Clear,200,2013-02-23 20:53:00
3:53 PM,21.0,14.0,74,29.91,10.0,SE,4.6,-,N/A,,Clear,130,2013-02-23 21:53:00
4:53 PM,19.0,14.0,81,29.93,10.0,South,5.8,-,N/A,,Clear,180,2013-02-23 22:53:00
5:53 PM,17.1,10.9,77,29.93,10.0,SE,3.5,-,N/A,,Clear,140,2013-02-23 23:53:00
6:53 PM,14.0,10.0,84,29.94,10.0,ESE,4.6,-,N/A,,Clear,110,2013-02-24 00:53:00
7:53 PM,12.9,9.0,84,29.96,6.0,Calm,Calm,-,N/A,,Clear,0,2013-02-24 01:53:00
8:53 PM,10.9,7.0,84,29.98,5.0,South,3.5,-,N/A,,Clear,180,2013-02-24 02:53:00
9:53 PM,7.0,3.0,84,30.00,6.0,ESE,4.6,-,N/A,,Clear,110,2013-02-24 03:53:00
10:53 PM,6.1,3.9,91,30.00,9.0,SE,3.5,-,N/A,,Clear,140,2013-02-24 04:53:00
11:53 PM,8.1,3.9,83,30.01,7.0,Calm,Calm,-,N/A,,Clear,0,2013-02-24 05:53:00